Lid_Strength_Index
6 6 6 5 5 5 5 5 5 5 5 5 5 5 5 4 4 3 3 3 2 2 2 2 2 1 3 8 8 3 1 1 1 1 3 5 7 7 10 8 8 10 8 7 8 7 6
6 6 6 5 5 5 5 5 4 4 5 5 5 5 5 4 3 3 3 3 2 2 2 1 2 1 5 10 3 2 3 3 3 2 3 4 6 5 7 8 9 7 8 8 7 8 7
6 6 6 5 5 5 5 4 4 5 5 5 5 4 4 4 3 3 3 2 2 2 1 1 0 1 4 6 0 -0 1 3 2 2 4 3 3 6 6 9 6 7 10 9 8 7 8
5 5 5 5 5 5 5 5 4 5 4 4 4 3 3 3 3 2 2 2 2 1 0 -1 -1 1 7 1 -0 1 0 1 1 1 2 2 2 5 7 6 8 10 10 14 9 8 7
5 5 5 5 5 5 5 4 5 4 4 3 3 3 3 3 2 2 2 2 1 -0 -1 -1 1 3 7 1 3 1 1 3 2 2 2 2 3 7 7 11 13 12 16 14 12 7 8
5 5 5 5 5 5 5 5 4 4 3 3 3 3 2 2 2 2 2 1 0 -1 0 2 3 6 6 6 3 2 1 2 4 4 5 6 7 10 11 12 18 16 15 13 13 10 9
5 5 5 5 5 5 5 5 4 3 3 3 2 2 2 2 2 2 2 2 4 6 5 7 7 7 6 2 1 3 2 3 4 6 11 8 12 14 12 11 10 12 13 14 11 9 10
5 5 5 5 5 5 5 4 3 3 3 3 3 3 3 3 2 2 2 5 5 5 10 6 6 6 4 3 7 5 2 7 8 11 10 11 14 10 9 10 11 12 13 14 11 9 10
5 5 5 5 5 5 4 4 3 3 3 3 3 3 3 3 2 3 3 3 2 3 10 9 7 7 7 4 7 7 4 6 9 13 12 13 11 9 10 11 13 13 14 13 13 12 10
5 5 5 5 5 5 4 4 3 3 3 3 3 3 3 2 4 2 3 2 2 2 13 12 9 7 5 5 8 4 4 6 9 13 12 12 9 11 11 13 12 15 11 11 13 14 18
5 5 5 5 5 5 4 4 4 3 3 3 3 3 2 2 4 5 3 2 3 5 20 10 10 5 6 8 7 7 4 6 11 11 11 13 12 12 13 12 10 13 10 12 12 14 15
5 5 5 5 5 4 4 4 4 3 3 3 3 3 3 3 2 2 2 2 4 13 20 13 10 11 10 8 8 7 7 6 7 10 11 12 10 10 11 10 10 10 12 13 14 15 19
6 5 5 5 5 4 4 4 3 3 3 3 3 2 4 3 5 2 2 5 14 18 11 14 14 12 12 11 11 10 10 11 13 16 15 14 14 11 9 12 11 11 14 19 20 20 21
6 5 5 5 4 4 4 3 3 3 3 3 2 2 3 3 2 3 4 10 17 15 15 11 12 12 13 11 11 11 12 13 11 12 15 17 18 13 11 13 14 13 14 19 23 22 20
5 5 5 5 4 4 4 3 3 3 3 3 3 3 4 2 2 4 6 14 15 14 13 13 13 14 14 12 12 12 12 13 11 11 15 16 17 14 12 11 11 15 16 13 17 19 19
5 5 5 5 5 4 4 3 3 3 3 3 6 5 5 3 3 5 11 13 13 11 11 12 15 13 15 14 14 13 13 11 12 10 10 13 17 16 12 11 12 13 12 17 17 22 23
5 5 5 5 5 4 4 3 3 3 3 4 6 9 4 3 3 8 13 13 12 9 10 13 14 14 13 14 13 13 13 11 9 10 9 11 13 16 14 15 15 14 15 14 14 16 21
5 5 5 5 5 4 4 4 4 4 4 5 6 13 4 4 11 12 13 12 9 9 9 11 11 13 13 12 13 13 14 12 9 9 12 11 13 16 16 14 13 12 14 13 18 19 19
5 5 5 5 5 4 4 4 4 4 5 6 12 8 4 5 13 13 12 10 9 10 10 11 11 11 12 13 14 12 12 9 9 10 11 11 14 18 17 14 14 14 13 12 13 15 18
5 5 5 5 5 4 4 4 4 4 5 6 10 14 10 9 10 12 14 13 12 8 9 9 10 9 11 13 12 13 12 10 9 9 9 10 13 15 18 17 14 15 14 13 13 17 17
5 5 5 5 5 5 4 4 4 4 5 6 11 15 14 15 14 12 11 11 11 12 9 9 11 10 12 14 13 14 12 11 10 10 11 12 15 15 15 14 14 14 14 14 15 14 16
5 5 5 5 5 4 4 4 4 4 5 7 13 13 13 14 12 12 11 13 12 10 10 11 11 11 10 12 12 14 12 12 13 11 12 12 15 15 17 14 14 16 14 13 13 13 13
5 4 4 4 5 4 4 4 4 5 5 10 9 10 10 13 13 13 13 12 12 9 8 9 10 11 12 11 10 10 10 10 10 12 13 13 15 15 18 16 16 18 16 14 13 12 12
5 4 4 4 5 5 4 4 4 5 6 6 8 9 11 14 14 13 12 11 11 10 10 8 9 10 10 8 8 9 9 10 10 10 10 13 14 15 18 18 21 16 15 14 13 12 11
5 4 4 5 5 5 5 5 4 5 5 6 7 8 10 14 13 13 13 12 11 10 10 9 8 9 8 9 13 18 17 17 15 11 11 10 12 16 18 19 16 16 15 15 15 15 15
5 4 4 5 5 5 5 5 4 4 5 5 7 6 8 12 13 12 12 12 13 13 12 12 7 6 7 10 14 20 22 22 20 17 10 10 11 14 17 20 22 16 14 13 13 18 15
5 4 4 4 5 5 5 4 4 4 5 5 8 6 8 13 12 11 12 12 11 12 13 12 9 9 8 12 18 20 20 17 20 22 16 14 13 16 16 18 16 14 13 12 18 16 15
5 5 5 4 4 5 4 5 4 4 5 5 8 6 8 12 12 11 9 10 11 11 13 11 10 9 10 16 17 16 20 16 19 17 16 17 16 16 15 18 20 13 13 15 12 13 14
4 5 4 4 4 4 5 4 4 4 5 4 8 6 7 10 11 10 9 8 8 8 9 10 11 11 8 11 13 12 14 14 17 21 13 18 14 16 14 14 11 11 12 10 11 11 12